Simultaneous Nadir Overpasses (SNOs) Predictions

Prediction of SNOs between METOP-A and NOAA-19 Satellite Orbit:

Table of predicted SNOs for the next 14.0 days since TLE Epoch: 3/20/2020
Index Date (METOP-A) Time (METOP-A) Lat,Lon (METOP-A) SZA (METOP-A ) Date (NOAA-19) Time (NOAA-19) Lat,Lon (NOAA-19) SZA (NOAA-19 ) Distance(km) Time Diff (sec)
1 03/28/2020 05:59:44 -80.40, -76.36 102.62 03/28/2020 05:58:42 -80.39, -76.29 102.64 1.54 62
2 03/28/2020 06:50:25 80.38, 90.81 77.35 03/28/2020 06:49:40 80.40, 90.68 77.36 3.24 45
3 03/28/2020 07:41:06 -80.39,-101.82 102.66 03/28/2020 07:40:43 -80.39,-101.91 102.66 1.87 23
4 03/28/2020 08:31:47 80.37, 65.34 77.31 03/28/2020 08:31:40 80.39, 65.41 77.33 2.49 7
5 03/28/2020 09:22:28 -80.37,-127.29 102.71 03/28/2020 09:22:43 -80.38,-127.19 102.69 2.03 15
6 03/28/2020 10:13:08 80.39, 40.19 77.30 03/28/2020 10:13:40 80.38, 40.13 77.30 1.45 32
7 03/28/2020 11:03:49 -80.39,-152.45 102.71 03/28/2020 11:04:43 -80.37,-152.47 102.72 2.33 54




NCC Satellite Simultaneous Nadir Overpasses (SNOs) Prediction Service
